Mmabatho, South Africa

10:12 PM SAST on February 14, 2016 (GMT +0200)
Mafikeng International

Weather History for FAMM - August, 2013

Change the Weather History Date:

Monday, August 19, 2013

  Actual Average Record
Temperature  
Mean Temperature 52 °F -  
Max Temperature 72 °F - - ()
Min Temperature 31 °F - - ()
Degree Days  
Heating Degree Days 14    
Growing Degree Days 2 (Base 50)    
Moisture  
Dew Point 9 °F    
Average Humidity 21    
Maximum Humidity 44    
Minimum Humidity 4    
Precipitation  
Precipitation 0.00 in - - ()
Sea Level Pressure  
Sea Level Pressure 30.28 in    
Wind  
Wind Speed 5 mph ()    
Max Wind Speed 12 mph    
Max Gust Speed -    
Visibility 19.0 miles    
Events      
T = Trace of Precipitation, MM = Missing Value Source: Averaged Metar Reports

Daily Weather History Graph

Daily Weather History Graph

Search for Another Location

Airport or City:

Trip Planner

Search our weather history database for the weather conditions in past years. The results will help you decide how hot, cold, wet, or windy it might be!

Date:

Astronomy

Aug. 19, 2013 Rise Set
Actual Time 6:42 AM SAST 6:00 PM SAST
Civil Twilight 6:19 AM SAST 6:24 PM SAST
Nautical Twilight 5:52 AM SAST 6:51 PM SAST
Astronomical Twilight 5:25 AM SAST 7:17 PM SAST
Moon 4:28 PM SAST (8/19) 4:58 AM SAST (8/19)
Length of Visible Light 12h 04m
Length of Day
11h 17m
Waxing Gibbous, 96% of the Moon is Illuminated
Aug 19
Waxing Gibbous
Aug 21
Full
Aug 28
Last Quarter
Sep 5
New
Sep 12
First Quarter

Hourly Weather History & Observations

Time (SAST) Temp. Windchill Dew Point Humidity Pressure Visibility Wind Dir Wind Speed Gust Speed Precip Events Conditions
12:00 AM 42.8 °F 38.6 °F 12.2 °F 29% 30.27 in - SE 6.9 mph - N/A   Unknown
1:00 AM 37.4 °F 32.8 °F 12.2 °F 36% 30.27 in - East 5.8 mph - N/A   Unknown
2:00 AM 37 °F - 11 °F 21%  in - East 4.6 mph - -  
2:00 AM 35.6 °F 32.8 °F 12.2 °F 38% 30.27 in - East 3.5 mph - N/A   Unknown
3:00 AM 35.6 °F 30.7 °F 12.2 °F 38% 30.27 in - East 5.8 mph - N/A   Unknown
4:00 AM 32.0 °F 25.6 °F 12.2 °F 44% 30.27 in - ESE 6.9 mph - N/A   Unknown
5:00 AM 33 °F - 11 °F 25%  in 19 mi ESE 6.9 mph - -  
5:00 AM 32.0 °F 25.6 °F 12.2 °F 44% 30.27 in - ESE 6.9 mph - N/A   Clear
6:00 AM 33.8 °F 29.6 °F 14.0 °F 44% 30.27 in - SE 4.6 mph - N/A   Clear
7:00 AM 33.8 °F 28.6 °F 12.2 °F 41% 30.27 in - SSE 5.8 mph - N/A   Clear
7:38 AM 39.2 °F 37.0 °F 12.2 °F 33% 30.30 in - ESE 3.5 mph - N/A   Clear
8:00 AM 43 °F - 12 °F 16%  in 19 mi ESE 3.5 mph - -  
8:00 AM 42.8 °F - 12.2 °F 29% 30.30 in - ESE 2.3 mph - N/A   Clear
8:28 AM 46.4 °F 45.2 °F 12.2 °F 25% 30.30 in - ESE 3.5 mph - N/A   Clear
8:50 AM 50.0 °F - 14.0 °F 24% 30.33 in - ESE 4.6 mph - N/A   Clear
9:00 AM 50.0 °F - 14.0 °F 24% 30.30 in - ESE 4.6 mph - N/A   Clear
9:17 AM 55.4 °F - 14.0 °F 20% 30.33 in - SE 11.5 mph - N/A   Clear
10:00 AM 59.0 °F - 12.2 °F 16% 30.33 in - SE 8.1 mph - N/A   Clear
10:33 AM 62.6 °F - 10.4 °F 13% 30.33 in - ESE 3.5 mph - N/A   Clear
11:00 AM 63 °F - 5 °F 4%  in 19 mi ESE 4.6 mph - -  
11:00 AM 62.6 °F - 6.8 °F 11% 30.30 in - ESE 3.5 mph - N/A   Clear
12:00 PM 68.0 °F - 5.0 °F 8% 30.30 in - ENE 6.9 mph - N/A   Clear
1:00 PM 69.8 °F - 5.0 °F 8% 30.24 in - NE 9.2 mph - N/A   Clear
2:00 PM 69.8 °F - 5.0 °F 8% 30.24 in - North 5.8 mph - N/A   Clear
3:00 PM 69.8 °F - 5.0 °F 8% 30.24 in - North 4.6 mph - N/A   Clear
4:00 PM 69.8 °F - 5.0 °F 8% 30.21 in - North 4.6 mph - N/A   Clear
5:00 PM 70 °F - 3 °F 4%  in 19 mi North 8.1 mph - -  
5:00 PM 69.8 °F - 3.2 °F 7% 30.24 in - North 6.9 mph - N/A   Clear
6:00 PM 60.8 °F - 5.0 °F 11% 30.24 in - North 4.6 mph - N/A   Clear
7:00 PM 57.2 °F - 3.2 °F 11% 30.27 in - NNE 4.6 mph - N/A   Clear
8:00 PM 54 °F - 2 °F 5%  in 19 mi ENE 6.9 mph - -  
8:00 PM 53.6 °F - 3.2 °F 13% 30.27 in - ENE 5.8 mph - N/A   Clear
9:00 PM 48.2 °F - 6.8 °F 19% 30.30 in - NE 5.8 mph - N/A   Unknown
10:00 PM 50.0 °F - 8.6 °F 19% 30.27 in - NE 4.6 mph - N/A   Unknown
11:00 PM 46.4 °F 44.3 °F 8.6 °F 22% 30.30 in - ENE 4.6 mph - N/A   Unknown